Location: Nairn
(57.5833°N, 3.8667°W)
Time: 01:30:36
(UTC+00:00)

Cosmos 2237 Rocket - Pass Details

Date: 07 August 2020
Orbit: 836 x 849 km, 71.0° (Epoch: 19 September)

Event Time Altitude Azimuth Distance (km) Brightness Sun altitude
Rises 00:45:54 0° 323° (NW) 3,417 6.1 -15.9°
Reaches altitude 10° 00:48:21 10° 324° (NW) 2,477 5.3 -15.9°
Maximum altitude 00:54:04 86° 53° (NE) 853 2.2 -15.8°
Enters shadow 00:59:22 12° 143° (SE) 2,322 4.1 -15.7°
